Regional Weather Roundup
Issued by NWS

Home | Current Version | Previous Version | Graphics & Text | Print | Product List | Glossary On
Versions: 1 2 3 4 5 6 7 8 9 10 11 12 13 14 15 16 17 18 19 20 21 22 23 24 25 26 27 28 29 30 31 32 33 34 35 36 37 38 39 40 41 42 43 44 45 46 47 48 49 50
000
ASUS43 KBIS 221602
RWRND

NORTH DAKOTA REGIONAL WEATHER ROUNDUP
NATIONAL WEATHER SERVICE BISMARCK ND
1100 AM CDT WED MAR 22 2017

NOTE: "FAIR" INDICATES FEW OR NO CLOUDS BELOW 12,000 FEET WITH NO
SIGNIFICANT WEATHER AND/OR OBSTRUCTIONS TO VISIBILITY.


NDZ001>003-009>011-017-221700-
NORTHWEST NORTH DAKOTA

CITY           SKY/WX    TMP DP  RH WIND       PRES   REMARKS
WILLISTON      CLOUDY    33  24  69 SE14G24   29.93F
MINOT          CLOUDY    29  20  69 SE21G31   30.06F WCI  16
MINOT AFB      CLOUDY    27  20  75 S23       30.06F WCI  13
$$

NDZ018>021-031>035-040>046-221700-
SOUTHWEST NORTH DAKOTA

CITY           SKY/WX    TMP DP  RH WIND       PRES   REMARKS
BISMARCK       FAIR      34  23  64 S28G37    30.10F
DICKINSON      CLOUDY    31  25  78 S25       29.92S WCI  17
GARRISON         N/A     28  22  78 S18G29    30.03F WCI  15
HETTINGER ARPT CLOUDY    34  27  75 SE18G29   29.95F
$$

NDZ004>008-012>016-024-026-027-054-221700-
NORTHEAST NORTH DAKOTA

CITY           SKY/WX    TMP DP  RH WIND       PRES   REMARKS
GRAND FORKS    CLOUDY    26   6  42 S20       30.37F WCI  12
DEVILS LAKE    CLOUDY    24  16  71 SE23      30.22F WCI   9
$$

NDZ022-023-025-028>030-036>039-047>053-221700-
SOUTHEAST NORTH DAKOTA

CITY           SKY/WX    TMP DP  RH WIND       PRES   REMARKS
FARGO          CLOUDY    29  11  47 S22G35    30.39F WCI  15
JAMESTOWN      CLOUDY    27  16  63 S17G32    30.23F WCI  14
$$




USA.gov is the U.S. government's official web portal to all federal, state and local government web resources and services.